IK1MHM-5 Weather Reports


time (UTC)temp
F
wind
direction
speed
knots
gust
knots
rain 1hr
in
rain 24hr
in
rain mn
in
humidity
%
barometer
mb
20260507224609 0 205 1.7 1.7 0.00 0.00 0.00 88 1027.2
20260507224109 0 201 0.9 1.7 0.00 0.00 0.00 88 1027.2
20260507223608 0 204 1.7 1.7 0.00 0.00 0.00 86 1027.2
20260507223109 0 224 1.7 2.6 0.00 0.00 0.00 85 1027.2
20260507222609 0 191 0.9 1.7 0.00 0.00 0.00 88 1027.4
20260507222110 0 167 0.9 1.7 0.00 0.00 0.00 85 1027.2
20260507221608 0 191 0.9 1.7 0.00 0.00 0.00 83 1027.0
20260507221108 0 245 1.7 2.6 0.00 0.00 0.00 82 1027.0
20260507220608 0 232 2.6 3.5 0.00 0.00 0.00 83 1027.0
20260507220109 0 232 1.7 3.5 0.00 0.00 0.00 84 1027.0
20260507215609 0 194 0.0 0.9 0.00 0.00 0.04 85 1027.2
20260507215109 0 205 0.0 0.9 0.00 0.00 0.04 85 1027.2
20260507214609 0 196 0.0 0.9 0.00 0.00 0.04 87 1027.0
20260507214108 0 204 0.0 0.9 0.00 0.00 0.04 87 1027.2
20260507213610 0 189 0.9 1.7 0.00 0.00 0.04 88 1027.2
20260507212608 0 195 0.0 0.9 0.00 0.00 0.04 89 1027.0
20260507212109 0 210 1.7 2.6 0.00 0.00 0.04 88 1027.0
20260507211608 0 223 0.9 1.7 0.00 0.00 0.04 89 1027.0
20260507211110 0 217 1.7 2.6 0.00 0.00 0.04 88 1027.2
20260507210609 0 223 0.9 3.5 0.00 0.00 0.04 88 1027.0
20260507210108 0 206 1.7 2.6 0.00 0.00 0.04 88 1027.0
20260507205109 0 203 0.0 0.9 0.00 0.00 0.04 89 1027.0
20260507204609 0 172 0.0 0.9 0.00 0.00 0.04 90 1027.0
20260507204109 0 202 0.0 0.9 0.00 0.00 0.04 90 1027.2
20260507203108 0 216 0.0 0.9 0.00 0.00 0.04 91 1027.0
20260507202608 0 196 0.0 0.9 0.00 0.00 0.04 91 1027.0
20260507202109 0 195 0.0 0.9 0.00 0.00 0.04 93 1027.2
20260507201608 0 199 0.9 0.9 0.00 0.00 0.04 92 1027.0
20260507201109 0 246 0.9 1.7 0.00 0.00 0.04 92 1026.9
20260507200609 0 193 0.0 0.9 0.00 0.00 0.04 92 1027.0
20260507200108 0 228 0.0 0.9 0.00 0.00 0.04 91 1026.9
20260507195608 0 218 0.0 0.9 0.00 0.00 0.04 91 1026.7
20260507195108 0 198 0.9 1.7 0.00 0.00 0.04 91 1026.7
20260507194609 0 200 0.9 1.7 0.00 0.00 0.04 90 1026.9
20260507194109 0 192 0.9 0.9 0.00 0.00 0.04 89 1026.9
20260507193608 0 193 0.0 0.9 0.00 0.00 0.04 89 1026.7
20260507193108 0 207 0.0 0.9 0.00 0.00 0.04 90 1026.7
20260507192609 0 192 1.7 1.7 0.00 0.00 0.04 89 1026.7
20260507192109 0 201 0.0 0.9 0.00 0.00 0.04 88 1026.9
20260507191610 0 197 0.0 0.0 0.00 0.00 0.04 88 1026.9
20260507191108 0 196 0.0 0.0 0.00 0.00 0.04 88 1026.9
20260507190610 0 198 0.0 0.0 0.00 0.00 0.04 88 1026.9
20260507190109 0 198 0.0 0.0 0.00 0.00 0.04 88 1026.7
20260507185609 0 199 0.0 0.0 0.00 0.00 0.04 90 1026.5
20260507185109 0 191 0.0 0.0 0.00 0.00 0.04 89 1026.9
20260507184609 0 193 0.0 0.0 0.00 0.00 0.04 89 1026.7
20260507184108 0 192 0.0 0.0 0.00 0.00 0.04 89 1026.9
20260507183609 0 195 0.0 0.0 0.00 0.00 0.04 89 1026.7
20260507183109 0 196 0.0 0.0 0.00 0.00 0.04 89 1026.7
20260507182609 0 196 0.0 0.0 0.00 0.00 0.04 89 1026.7
20260507182109 0 194 0.0 0.0 0.00 0.00 0.04 88 1027.0
20260507181609 0 194 0.0 0.0 0.00 0.00 0.04 88 1026.7
20260507181109 0 193 0.0 0.0 0.00 0.00 0.04 87 1026.9
20260507180609 0 200 0.0 0.9 0.00 0.00 0.04 86 1026.9
20260507180109 0 197 0.0 0.0 0.00 0.00 0.04 85 1027.0
20260507175610 0 195 0.0 0.0 0.00 0.00 0.04 84 1026.7
20260507175109 0 189 0.0 0.0 0.00 0.00 0.04 83 1026.9
20260507174609 0 187 0.0 0.0 0.00 0.00 0.04 83 1027.0
20260507173609 0 189 0.0 0.0 0.00 0.00 0.04 79 1026.9
20260507173108 0 187 0.0 0.0 0.00 0.00 0.04 76 1026.9
20260507172109 0 184 0.0 0.0 0.00 0.00 0.04 75 1026.9
20260507171609 0 191 0.0 0.0 0.00 0.00 0.04 73 1026.7
20260507171109 0 200 0.0 0.0 0.00 0.00 0.04 72 1026.7
20260507170609 0 187 0.0 0.9 0.00 0.00 0.04 69 1026.7
20260507165608 0 196 0.0 0.9 0.00 0.00 0.04 68 1026.7
20260507165153 0 196 0.0 0.9 0.00 0.00 0.04 69 1026.7
20260507164608 0 189 0.0 0.0 0.00 0.00 0.04 68 1026.5
20260507164110 0 190 0.0 0.9 0.00 0.00 0.04 66 1026.7
20260507163609 0 187 0.0 0.0 0.00 0.00 0.04 68 1026.5
20260507163111 0 186 0.0 0.0 0.00 0.00 0.04 67 1026.7
20260507162609 0 187 0.0 0.0 0.00 0.00 0.04 67 1026.7
20260507162108 0 188 0.0 0.0 0.00 0.00 0.04 67 1026.5
20260507161608 0 172 0.0 0.9 0.00 0.00 0.04 68 1026.7
20260507161108 0 191 0.0 0.9 0.00 0.00 0.04 69 1026.5
20260507160609 0 186 0.0 0.0 0.00 0.00 0.04 70 1026.7
20260507160109 0 189 0.0 0.9 0.00 0.00 0.04 71 1027.0
20260507155609 0 181 0.0 0.9 0.00 0.00 0.04 78 1027.0
20260507155109 0 186 0.0 0.0 0.00 0.00 0.04 78 1026.7
20260507154609 0 195 0.0 0.9 0.00 0.00 0.04 74 1026.9
20260507154109 0 164 0.0 0.0 0.00 0.00 0.04 73 1027.0
20260507153609 0 157 0.0 0.9 0.00 0.00 0.04 70 1027.0
20260507153108 0 187 0.0 0.0 0.00 0.00 0.04 73 1027.0
20260507152613 0 197 2.6 5.2 0.00 0.00 0.04 67 1026.7
20260507152108 0 186 0.0 0.9 0.00 0.00 0.04 69 1026.9
20260507151609 0 172 0.0 0.9 0.00 0.00 0.04 71 1026.9
20260507151108 0 191 0.0 0.9 0.00 0.00 0.04 71 1026.9
20260507150609 0 216 1.7 2.6 0.00 0.00 0.04 65 1026.7
20260507150108 0 187 0.0 0.9 0.00 0.00 0.04 65 1026.9
20260507145609 0 50 0.0 0.0 0.00 0.00 0.04 69 1026.7
20260507145109 0 211 0.0 0.9 0.00 0.00 0.04 67 1026.9
20260507144608 0 178 0.0 0.9 0.00 0.00 0.04 65 1026.9
20260507144109 0 197 0.0 0.0 0.00 0.00 0.04 71 1026.9
20260507143609 0 188 0.0 0.9 0.00 0.00 0.04 67 1027.0
20260507143109 0 220 0.0 0.9 0.00 0.00 0.04 65 1026.9
20260507142609 0 138 0.0 1.7 0.00 0.00 0.04 62 1027.0
20260507142109 0 213 0.9 1.7 0.00 0.00 0.04 65 1027.0
20260507141608 0 131 1.7 2.6 0.00 0.00 0.04 64 1027.2
20260507141108 0 185 0.0 0.9 0.00 0.00 0.04 66 1027.0
20260507140609 0 203 0.9 3.5 0.00 0.00 0.04 69 1027.2
20260507140108 0 125 1.7 2.6 0.00 0.00 0.04 69 1027.2
20260507135609 0 202 0.0 0.9 0.00 0.00 0.04 77 1027.4
20260507135109 0 334 0.0 1.7 0.00 0.00 0.04 76 1027.2
20260507134609 0 179 0.9 1.7 0.00 0.00 0.04 74 1027.2
20260507134109 0 192 0.9 1.7 0.00 0.00 0.04 72 1027.4
20260507133609 0 202 0.0 1.7 0.00 0.00 0.04 69 1027.2
20260507133108 0 195 0.0 0.9 0.00 0.00 0.04 72 1027.2
20260507132610 0 141 0.9 1.7 0.00 0.00 0.04 73 1027.2
20260507132109 0 212 0.9 1.7 0.00 0.00 0.04 76 1027.2
20260507131609 0 212 0.0 0.9 0.00 0.00 0.04 74 1027.2
20260507131108 0 193 0.0 1.7 0.00 0.00 0.04 74 1027.2
20260507130609 0 191 0.9 1.7 0.00 0.00 0.04 74 1027.4
20260507130108 0 185 0.9 1.7 0.00 0.00 0.04 76 1027.4
20260507125608 0 169 1.7 2.6 0.00 0.00 0.04 78 1027.2
20260507125108 0 206 0.0 1.7 0.00 0.00 0.04 76 1027.2
20260507124608 0 202 0.0 1.7 0.00 0.00 0.04 75 1027.0
20260507124108 0 243 1.7 3.5 0.00 0.00 0.04 69 1027.2
20260507123609 0 240 0.9 1.7 0.00 0.00 0.04 71 1027.0
20260507123109 0 157 1.7 1.7 0.00 0.00 0.04 64 1027.2
20260507122608 0 118 0.9 1.7 0.00 0.00 0.04 65 1027.0
20260507122108 0 123 1.7 3.5 0.00 0.00 0.04 69 1027.0
20260507121608 0 198 1.7 3.5 0.00 0.00 0.04 67 1027.2
20260507121110 0 156 0.0 0.9 0.00 0.00 0.04 71 1027.0
20260507120608 0 228 0.9 2.6 0.00 0.00 0.04 71 1027.0
20260507120109 0 62 0.9 0.9 0.00 0.00 0.04 71 1027.0
20260507115608 0 203 0.9 0.9 0.00 0.00 0.04 71 1027.2
20260507115108 0 186 0.0 1.7 0.00 0.00 0.04 73 1027.2
20260507114609 0 191 0.0 0.9 0.00 0.00 0.04 70 1027.2
20260507114108 0 211 4.3 5.2 0.00 0.00 0.04 71 1027.2
20260507113609 0 296 3.5 4.3 0.00 0.00 0.04 68 1027.5
20260507113109 0 277 3.5 5.2 0.00 0.00 0.04 69 1027.4
20260507112609 0 269 2.6 4.3 0.00 0.00 0.04 69 1027.4
20260507112108 0 144 0.9 1.7 0.00 0.00 0.04 71 1027.2
20260507111608 0 336 0.9 1.7 0.00 0.00 0.04 68 1027.5
20260507111108 0 174 0.9 1.7 0.00 0.00 0.04 68 1027.2
20260507110608 0 199 0.0 0.9 0.00 0.00 0.04 70 1027.2
20260507110109 0 354 0.9 1.7 0.00 0.00 0.04 68 1027.2
20260507105608 0 307 1.7 2.6 0.00 0.00 0.04 68 1027.2
20260507105109 0 204 0.9 1.7 0.00 0.00 0.04 74 1027.2
20260507104609 0 199 0.9 1.7 0.00 0.00 0.04 71 1027.2
20260507104109 0 198 0.0 0.9 0.00 0.00 0.04 71 1027.4
20260507103609 0 171 1.7 4.3 0.00 0.00 0.04 70 1027.4
20260507103110 0 161 1.7 2.6 0.00 0.00 0.04 71 1027.4
20260507102609 0 178 0.0 0.9 0.00 0.00 0.04 68 1027.2
20260507102108 0 207 0.9 1.7 0.00 0.00 0.04 72 1027.4
20260507101608 0 33 0.9 2.6 0.00 0.00 0.04 72 1027.4
20260507101109 0 76 0.9 1.7 0.00 0.00 0.04 74 1027.2
20260507100609 0 359 1.7 2.6 0.00 0.00 0.04 74 1027.4
20260507100109 0 159 0.0 1.7 0.00 0.00 0.04 72 1027.2
20260507095608 0 176 1.7 2.6 0.00 0.00 0.04 70 1027.2
20260507095109 0 150 1.7 2.6 0.00 0.00 0.04 67 1027.4
20260507094609 0 204 0.0 0.9 0.00 0.00 0.04 72 1027.2
20260507094109 0 229 0.0 0.9 0.00 0.00 0.04 76 1027.2
20260507093609 0 246 2.6 3.5 0.00 0.00 0.04 71 1027.5
20260507093109 0 165 0.9 1.7 0.00 0.00 0.04 70 1027.2
20260507092609 0 206 0.9 1.7 0.00 0.00 0.04 69 1027.2
20260507092108 0 240 0.0 1.7 0.00 0.00 0.04 71 1027.0
20260507091608 0 174 0.9 1.7 0.00 0.00 0.04 71 1027.4
20260507091109 0 202 0.0 0.9 0.00 0.00 0.04 73 1027.2
20260507090609 0 174 0.0 0.9 0.00 0.00 0.04 75 1027.4
20260507090108 0 200 0.0 0.9 0.00 0.00 0.04 76 1027.2
20260507085609 0 210 1.7 2.6 0.00 0.00 0.04 76 1027.2
20260507085109 0 202 3.5 5.2 0.00 0.00 0.04 76 1027.2
20260507084609 0 191 0.9 1.7 0.00 0.00 0.04 77 1027.0
20260507084108 0 66 0.9 1.7 0.00 0.00 0.04 76 1027.0
20260507083608 0 115 1.7 4.3 0.00 0.00 0.04 76 1026.7
20260507083108 0 209 0.0 0.9 0.00 0.00 0.04 77 1026.9
20260507082609 0 262 0.9 2.6 0.00 0.00 0.04 78 1026.9
20260507082109 0 206 0.0 0.9 0.00 0.00 0.04 79 1026.7
20260507081608 0 199 0.9 1.7 0.00 0.00 0.04 81 1026.9
20260507081108 0 202 0.0 0.9 0.00 0.00 0.04 83 1026.9
20260507080609 0 206 2.6 3.5 0.00 0.00 0.04 83 1026.7
20260507080109 0 195 0.9 1.7 0.00 0.00 0.04 82 1026.7
20260507075609 0 219 0.0 0.9 0.04 0.00 0.04 85 1026.7
20260507075108 0 220 2.6 4.3 0.04 0.00 0.04 85 1026.7
20260507074608 0 202 0.9 1.7 0.04 0.00 0.04 88 1026.5
20260507074109 0 194 0.9 1.7 0.04 0.00 0.04 88 1026.7
20260507073608 0 186 0.0 0.9 0.03 0.00 0.03 88 1026.7
20260507073108 0 191 0.0 0.9 0.03 0.00 0.03 86 1026.7
20260507072608 0 201 0.0 0.9 0.03 0.00 0.03 85 1026.5
20260507072109 0 221 0.9 1.7 0.03 0.00 0.03 85 1026.7
20260507071610 0 192 0.0 0.0 0.00 0.00 0.00 80 1026.5
20260507071109 0 203 0.0 0.9 0.00 0.00 0.00 77 1026.5
20260507070608 0 200 0.0 0.9 0.00 0.00 0.00 75 1026.5
20260507070108 0 197 0.0 0.0 0.00 0.00 0.00 78 1026.5
20260507065609 0 203 0.0 0.0 0.00 0.00 0.00 76 1026.4
20260507065109 0 257 0.0 1.7 0.00 0.00 0.00 82 1026.4
20260507064609 0 200 0.0 0.9 0.00 0.00 0.00 84 1026.2
20260507064108 0 198 0.0 0.9 0.00 0.00 0.00 84 1026.2
20260507063609 0 210 0.9 1.7 0.00 0.00 0.00 84 1026.0
20260507063109 0 227 0.0 0.9 0.00 0.00 0.00 84 1026.2
20260507062609 0 184 0.0 0.0 0.00 0.00 0.00 83 1026.0
20260507062108 0 204 0.0 0.0 0.00 0.00 0.00 83 1026.0
20260507061608 0 197 0.0 0.0 0.00 0.00 0.00 83 1026.0
20260507061109 0 192 0.0 0.0 0.00 0.00 0.00 83 1026.2
20260507060609 0 200 0.0 0.0 0.00 0.00 0.00 81 1026.0
20260507060109 0 196 0.0 0.9 0.00 0.00 0.00 82 1026.0
20260507055609 0 201 0.0 0.0 0.00 0.00 0.00 81 1026.0
20260507055109 0 199 0.9 1.7 0.00 0.00 0.00 82 1026.0
20260507054609 0 213 0.9 1.7 0.00 0.00 0.00 85 1026.0
20260507054108 0 189 0.0 1.7 0.00 0.00 0.00 86 1026.0
20260507053609 0 220 0.0 0.9 0.00 0.00 0.00 85 1026.0
20260507053109 0 209 0.0 0.9 0.00 0.00 0.00 86 1025.7
20260507052608 0 197 0.0 0.9 0.00 0.00 0.00 87 1025.7
20260507052109 0 210 0.9 1.7 0.00 0.00 0.00 88 1025.7
20260507051609 0 214 0.0 0.9 0.00 0.00 0.00 88 1025.7
20260507051109 0 220 0.9 1.7 0.00 0.00 0.00 88 1025.7
20260507050608 0 202 0.0 0.9 0.00 0.00 0.00 89 1025.5
20260507050108 0 197 0.9 0.9 0.00 0.00 0.00 88 1025.5
20260507045609 0 202 0.0 0.9 0.00 0.00 0.00 88 1025.4
20260507045108 0 217 0.0 0.9 0.00 0.00 0.00 88 1025.4
20260507044608 0 209 0.0 0.9 0.00 0.00 0.00 89 1025.4
20260507044108 0 197 0.0 0.9 0.00 0.00 0.00 89 1025.5
20260507043608 0 199 0.9 1.7 0.00 0.00 0.00 90 1025.5
20260507043109 0 199 2.6 3.5 0.00 0.00 0.00 89 1025.2
20260507042609 0 189 1.7 2.6 0.00 0.00 0.00 89 1025.2
20260507042108 0 211 0.0 0.9 0.00 0.00 0.00 89 1025.2
20260507041609 0 190 0.0 0.9 0.00 0.00 0.00 88 1025.4
20260507041109 0 225 0.9 1.7 0.00 0.00 0.00 88 1025.4
20260507040609 0 199 0.9 1.7 0.00 0.00 0.00 88 1025.2
20260507040109 0 263 2.6 3.5 0.00 0.00 0.00 88 1025.2
20260507035609 0 226 1.7 2.6 0.00 0.00 0.00 89 1025.2
20260507035108 0 228 0.9 1.7 0.00 0.00 0.00 89 1025.4
20260507034608 0 206 0.0 0.9 0.00 0.00 0.00 90 1025.2
20260507034108 0 220 1.7 2.6 0.00 0.00 0.00 90 1025.2
20260507033609 0 213 0.9 1.7 0.00 0.00 0.00 90 1025.4
20260507033109 0 219 0.9 0.9 0.00 0.00 0.00 90 1025.4
20260507032608 0 237 1.7 2.6 0.00 0.00 0.00 89 1025.2
20260507032109 0 227 0.9 1.7 0.00 0.00 0.00 90 1025.2
20260507031608 0 222 1.7 2.6 0.00 0.00 0.00 89 1025.0
20260507031109 0 204 1.7 2.6 0.00 0.00 0.00 89 1025.0
20260507030609 0 222 1.7 3.5 0.00 0.00 0.00 90 1025.2
20260507030108 0 227 2.6 3.5 0.00 0.00 0.00 91 1025.2
20260507025609 0 214 1.7 2.6 0.00 0.00 0.00 91 1025.2
20260507025109 0 209 0.0 0.9 0.00 0.00 0.00 90 1025.0
20260507024608 0 210 2.6 4.3 0.00 0.00 0.00 90 1025.2
20260507024108 0 203 0.9 1.7 0.00 0.00 0.00 89 1025.2
20260507023608 0 195 0.9 1.7 0.00 0.00 0.00 89 1025.2
20260507023108 0 211 1.7 2.6 0.00 0.00 0.00 89 1025.2
20260507022608 0 242 1.7 2.6 0.00 0.00 0.00 90 1025.2
20260507022108 0 195 1.7 2.6 0.00 0.00 0.00 90 1025.2
20260507021610 0 216 1.7 1.7 0.00 0.00 0.00 91 1025.2
20260507021109 0 222 0.9 1.7 0.00 0.00 0.00 90 1025.2
20260507020610 0 231 2.6 3.5 0.00 0.00 0.00 90 1025.0
20260507020109 0 216 0.0 0.9 0.00 0.00 0.00 90 1025.2
20260507015609 0 212 0.9 0.9 0.00 0.00 0.00 89 1025.0
20260507015109 0 204 0.9 1.7 0.00 0.00 0.00 90 1025.2
20260507014609 0 230 0.9 2.6 0.00 0.00 0.00 89 1025.0
20260507014108 0 198 1.7 2.6 0.00 0.00 0.00 90 1025.0
20260507013608 0 205 0.9 1.7 0.00 0.00 0.00 90 1025.2
20260507012608 0 228 0.9 0.9 0.00 0.00 0.00 91 1025.2
20260507012109 0 200 0.0 0.9 0.00 0.00 0.00 90 1025.5
20260507011608 0 257 2.6 3.5 0.00 0.00 0.00 90 1025.2
20260507011109 0 229 0.9 1.7 0.00 0.00 0.00 90 1025.2
20260507010609 0 213 0.9 1.7 0.00 0.00 0.00 89 1025.2
20260507010108 0 200 0.9 1.7 0.00 0.00 0.00 90 1025.2
20260507005608 0 245 2.6 3.5 0.00 0.00 0.00 90 1025.2
20260507005108 0 236 1.7 2.6 0.00 0.00 0.00 90 1025.2
20260507004609 0 250 1.7 1.7 0.00 0.00 0.00 90 1025.2
20260507004109 0 207 1.7 1.7 0.00 0.00 0.00 90 1025.2
20260507003608 0 218 1.7 3.5 0.00 0.00 0.00 90 1025.4
20260507003108 0 216 0.9 1.7 0.00 0.00 0.00 89 1025.4
20260507002608 0 197 1.7 3.5 0.00 0.00 0.00 89 1025.2
20260507002109 0 216 1.7 2.6 0.00 0.00 0.00 89 1025.2
20260507001608 0 248 2.6 3.5 0.00 0.00 0.00 89 1025.2
20260507001108 0 207 0.9 1.7 0.00 0.00 0.00 89 1025.2
20260507000608 0 209 0.0 0.9 0.00 0.00 0.00 89 1025.2
20260507000109 0 220 1.7 3.5 0.00 0.00 0.00 88 1025.2
20260506235608 0 203 0.9 1.7 0.00 0.00 0.00 89 1025.2
20260506235108 0 232 1.7 2.6 0.00 0.00 0.00 89 1025.4
20260506234609 0 239 1.7 1.7 0.00 0.00 0.00 89 1025.4
20260506234108 0 212 0.9 1.7 0.00 0.00 0.00 89 1025.4
20260506233608 0 255 0.9 1.7 0.00 0.00 0.00 89 1025.5
20260506233109 0 206 0.0 0.9 0.00 0.00 0.00 90 1025.5
20260506232610 0 199 0.0 0.9 0.00 0.00 0.00 89 1025.5
20260506232108 0 214 0.9 1.7 0.00 0.00 0.00 90 1025.4
20260506231609 0 209 1.7 2.6 0.00 0.00 0.00 89 1025.4
20260506231109 0 196 0.9 1.7 0.00 0.00 0.00 90 1025.5
20260506230609 0 246 1.7 2.6 0.00 0.00 0.00 90 1025.5
20260506230109 0 267 1.7 3.5 0.00 0.00 0.00 90 1025.5
20260506225609 0 194 0.0 0.0 0.00 0.00 0.00 90 1025.5
20260506225110 0 235 1.7 2.6 0.00 0.00 0.00 90 1025.5